Flag for Germany Weather past 2 weeks in Pirna, Saxony, Germany

Now
73 °F

Sunny.


Feels Like: 77 °F
Forecast: 58 / 82 °F
Wind: 2 mph from Northeast

Location: Dresden-Klotzsche

Current Time: Aug 1, 2015 at 10:17:19 PM

Latest Report: Aug 1, 2015 at 9:20 PM


Visibility: 10 mi

Pressure: 29.98 "Hg

Humidity: 38%

Dew point: 46 °F

Location of PirnaLocation

Historic Weather in Pirna — Graph

°F

Pirna temperature yesterday

Maximum temperature yesterday: 68 °F (at 5:50 PM)
Minimum temperature yesterday: 50 °F (at 4:20 AM)
Average temperature yesterday: 59 °F

Past Weeks' High & Low Weather Summary

 TemperatureHumidityPressure
High91 °F (Jul 22, 2:50 PM)100% (Jul 19, 8:20 PM)30.12 "Hg (Jul 19, 8:20 PM)
Low50 °F (Jul 31, 4:20 AM)24% (Aug 1, 2:50 PM)29.59 "Hg (Jul 27, 2:50 PM)
Average68 °F61%29.89 "Hg
* Reported Jul 17 8:20 PM — Aug 1 8:50 PM, Pirna, Weather by CustomWeather, © 2015

Note: Actual official high and low records may vary slightly from our data, if they occured in-between our weather recording intervals... More about our weather records

Advertising

Pirna weather history for previous 24 hours

 ConditionsComfort  
Time TempWeatherWind HumidityBarometerVisibility
8:50 PM
Sat, Aug 1
73 °FSunny.5 mph38%29.98 "Hg10 mi
8:20 PM73 °FSunny.5 mph38%29.98 "Hg10 mi
7:50 PM75 °FSunny.9 mph34%29.95 "Hg10 mi
7:20 PM77 °FSunny.12 mph32%29.98 "Hg10 mi
6:50 PM79 °FSunny.10 mph30%29.98 "Hg10 mi
6:20 PM77 °FPassing clouds.9 mph32%29.98 "HgN/A
5:50 PM77 °FPassing clouds.9 mph32%29.98 "HgN/A
5:20 PM79 °FPassing clouds.10 mph32%29.98 "HgN/A
4:50 PM77 °FPassing clouds.9 mph32%29.98 "HgN/A
4:20 PM75 °FPassing clouds.10 mph36%29.98 "HgN/A
3:50 PM77 °FPassing clouds.9 mph26%29.98 "HgN/A
3:20 PM77 °FPassing clouds.10 mph24%29.98 "HgN/A
2:50 PM77 °FPassing clouds.10 mph24%30.01 "HgN/A
2:20 PM77 °FPassing clouds.8 mph28%30.01 "HgN/A
1:50 PM75 °FPassing clouds.10 mph31%30.01 "HgN/A
1:20 PM75 °FPassing clouds.13 mph31%30.01 "HgN/A
12:50 PM73 °FPassing clouds.7 mph33%30.01 "HgN/A
12:20 PM73 °FSunny.8 mph33%30.01 "Hg10 mi
11:50 AM73 °FPassing clouds.9 mph33%30.01 "HgN/A
11:20 AM72 °FPassing clouds.9 mph38%30.04 "HgN/A
10:50 AM70 °FPassing clouds.8 mph40%30.04 "HgN/A
10:20 AM68 °FPassing clouds.8 mph43%30.04 "HgN/A
9:50 AM68 °FPassing clouds.8 mph43%30.04 "HgN/A
9:20 AM64 °FPassing clouds.8 mph52%30.01 "HgN/A
8:50 AM61 °FSunny.7 mph59%30.01 "Hg10 mi
8:20 AM59 °FSunny.5 mph63%30.04 "Hg10 mi
7:50 AM55 °FSunny.2 mph67%30.04 "Hg10 mi
7:20 AM52 °FSunny.1 mph82%30.04 "Hg10 mi
6:50 AM52 °FSunny.1 mph82%30.04 "Hg10 mi
6:20 AM52 °FClear.2 mph77%30.04 "Hg10 mi
5:50 AM52 °FClear.1 mph72%30.04 "Hg10 mi
5:20 AM50 °FClear.2 mph82%30.07 "Hg10 mi
4:50 AM52 °FClear.2 mph72%30.07 "Hg10 mi
4:20 AM52 °FClear.1 mph72%30.07 "Hg10 mi
3:50 AM50 °FClear.2 mph76%30.07 "Hg10 mi
3:20 AM54 °FClear.1 mph67%30.07 "Hg10 mi
2:50 AM52 °FClear.2 mph72%30.07 "Hg10 mi
2:20 AM54 °FClear.1 mph67%30.07 "Hg10 mi
1:50 AM55 °FClear.1 mph63%30.07 "Hg10 mi
1:20 AM54 °FClear.1 mph67%30.07 "Hg10 mi
12:50 AM54 °FClear.No wind67%30.07 "Hg10 mi
12:20 AM54 °FPassing clouds.3 mph67%30.07 "HgN/A
11:50 PM
Fri, Jul 31
55 °FClear.3 mph63%30.07 "Hg10 mi
11:20 PM57 °FClear.3 mph59%30.07 "Hg10 mi
10:50 PM57 °FClear.3 mph59%30.07 "Hg10 mi
10:20 PM59 °FClear.3 mph55%30.07 "Hg10 mi
Weather by CustomWeather, © 2015

See weather overviewHow to use our weather pages